This demonstration page uses our WeatherBlox Daily Observations layout. Learn more.

Hourly Observations for February 1, 2015

Temp ( °F °C ) Dew Point ( °F °C ) Humidity (%) Winds ( mph kmh ) Pressure ( in mb ) Visibility ( mi km ) Precip ( " mm )
12:15 am 00:15 Windy with Snow Likely 24 -4.3 22 -5.5 91 91 N 20 31 29.97 1015 2 3.21868 0 0
12:35 am 00:35 Cloudy with Light Snow 24 -4.3 22 -5.6 91 91 N 18 30 30 1016 2.5 4.02335 0 0
12:55 am 00:55 Cloudy with Light Snow 24 -4.7 21 -6.1 90 90 N 18 30 30 1016 2.5 4.02335 0 0
1:15 am 01:15 Windy with Snow Likely 23 -4.8 21 -6.3 89 89 N 22 35 30.03 1017 3 4.82802 0 0
1:35 am 01:35 Windy with Snow Likely 23 -5 20 -6.6 89 89 NNW 20 31 30.03 1017 4 6.43736 0 0
1:55 am 01:55 Windy with Snow Likely 23 -5.1 19 -7 87 87 N 23 37 30.03 1017 4 6.43736 0 0
2:15 am 02:15 Cloudy with Light Snow 22 -5.4 19 -7 89 89 N 18 30 30.03 1017 2.5 4.02335 0 0
2:35 am 02:35 Windy with Snow Likely 22 -5.5 19 -7 89 89 N 23 37 30.06 1018 2.5 4.02335 0 0
2:55 am 02:55 Windy with Snow Likely 22 -5.7 19 -7.5 87 87 N 23 37 30.06 1018 2.5 4.02335 0 0
3:15 am 03:15 Windy with Snow Likely 21 -6.2 18 -7.8 89 89 N 20 31 30.06 1018 1.5 2.41401 0 0
3:35 am 03:35 Windy with Snow Likely 19 -7 17 -8.6 89 89 NNW 22 35 30.12 1020 1.25 2.011675 0 0
3:55 am 03:55 Windy with Snow Likely 18 -7.6 15 -9.3 88 88 NNW 30 48 30.12 1020 1.5 2.41401 0 0
4:15 am 04:15 Windy with Snow Likely 17 -8.2 14 -10 87 87 NNW 23 37 30.15 1021 1 1.60934 0 0
4:35 am 04:35 Windy with Snow Likely 16 -8.7 13 -10.6 86 86 N 30 48 30.15 1021 1.5 2.41401 0 0
4:55 am 04:55 Windy with Snow Likely 15 -9.3 12 -11 88 88 N 28 44 30.15 1021 1 1.60934 0 0
5:15 am 05:15 Windy with Snow Likely 15 -9.5 11 -11.5 86 86 NNW 22 35 30.18 1022 1.25 2.011675 0 0
5:35 am 05:35 Windy with Snow Likely 14 -10.1 10 -12 86 86 NNW 25 41 30.21 1023 1.25 2.011675 0 0
5:55 am 05:55 Windy with Snow Likely 14 -10 11 -11.9 86 86 NNW 26 43 30.21 1023 1.5 2.41401 0 0
6:15 am 06:15 Windy with Snow Likely 13 -10.8 9 -12.9 85 85 NNW 28 44 30.24 1024 1 1.60934 0 0
6:35 am 06:35 Windy with Snow Likely 12 -11 9 -13 85 85 NNW 26 43 30.24 1024 1.5 2.41401 0 0
6:55 am 06:55 Windy with Snow Likely 12 -11.1 9 -13 86 86 NNW 21 33 30.27 1025 1.25 2.011675 0 0
7:15 am 07:15 Windy with Snow Likely 12 -11.3 8 -13.3 85 85 NNW 24 39 30.27 1025 1.25 2.011675 0 0
7:35 am 07:35 Windy with Snow Likely 11 -11.5 8 -13.6 85 85 NNW 22 35 30.3 1026 1.5 2.41401 0 0
7:55 am 07:55 Windy with Snow Likely 11 -11.5 7 -13.8 83 83 NNW 25 41 30.3 1026 1.5 2.41401 0 0
8:15 am 08:15 Windy with Snow Likely 11 -11.6 7 -14 83 83 N 25 41 30.33 1027 1 1.60934 0 0
8:35 am 08:35 Windy with Snow Likely 11 -11.7 7 -14 83 83 NNW 22 35 30.36 1028 1.25 2.011675 0 0
8:55 am 08:55 Windy with Snow Likely 10 -12 6 -14.2 84 84 NNW 24 39 30.36 1028 1 1.60934 0 0
9:15 am 09:15 Windy with Snow Likely 10 -12 6 -14.3 83 83 NNW 24 39 30.36 1028 1 1.60934 0 0
9:35 am 09:35 Windy with Snow Likely 10 -12.2 6 -14.7 82 82 N 28 44 30.36 1028 0.75 1.207005 0 0
9:55 am 09:55 Windy with Snow Likely 10 -12 6 -14.5 82 82 NNW 28 44 30.36 1028 1.5 2.41401 0 0
10:15 am 10:15 Windy with Snow Likely 10 -12 6 -14.5 82 82 NNW 24 39 30.36 1028 1.25 2.011675 0 0
10:35 am 10:35 Windy with Snow Likely 10 -12.1 6 -14.6 82 82 NNW 26 43 30.39 1029 1.25 2.011675 0 0
10:55 am 10:55 Windy with Snow Likely 10 -12.4 5 -15.2 80 80 NNW 25 41 30.39 1029 1 1.60934 0 0
11:15 am 11:15 Windy with Snow Likely 10 -12.3 5 -15.2 79 79 NNW 22 35 30.42 1030 1 1.60934 0 0
11:35 am 11:35 Windy with Snow Likely 10 -12 5 -15 79 79 NNW 25 41 30.42 1030 1.25 2.011675 0 0
11:55 am 11:55 Windy with Snow Likely 10 -12 5 -14.8 80 80 NNW 26 43 30.42 1030 1.25 2.011675 0 0
12:15 pm 12:15 Windy with Snow Likely 11 -11.7 6 -14.6 79 79 NNW 25 41 30.42 1030 1.25 2.011675 0 0
12:35 pm 12:35 Cloudy with Haze 11 -11.6 6 -14.7 78 78 NNW 26 43 30.42 1030 1.5 2.41401 0 0
12:55 pm 12:55 Cloudy with Haze 12 -11.1 6 -14.2 78 78 NNW 23 37 30.42 1030 1.75 2.816345 0 0
1:15 pm 13:15 Cloudy with Haze 12 -11 7 -14.1 78 78 NNW 23 37 30.42 1030 2 3.21868 0 0
1:35 pm 13:35 Cloudy with Haze 12 -11 6 -14.2 78 78 NNW 26 43 30.42 1030 2.5 4.02335 0 0
1:55 pm 13:55 Cloudy with Haze 11 -11.5 5 -15 76 76 NNW 23 37 30.42 1030 1.5 2.41401 0 0
2:15 pm 14:15 Cloudy with Haze 11 -11.4 6 -14.7 77 77 NNW 28 44 30.42 1030 2 3.21868 0 0
2:35 pm 14:35 Cloudy with Haze 11 -11.4 6 -14.6 77 77 NNW 20 31 30.42 1030 3 4.82802 0 0
2:55 pm 14:55 Mostly Cloudy with Haze 11 -11.4 5 -15 75 75 NNW 23 37 30.45 1031 4 6.43736 0 0
3:15 pm 15:15 Cloudy with Haze 10 -12 3 -16 72 72 NNW 20 31 30.45 1031 2.5 4.02335 0 0
3:35 pm 15:35 Cloudy with Haze 11 -11.5 4 -15.5 73 73 NNW 24 39 30.45 1031 5 8.0467 0 0
3:55 pm 15:55 Cloudy 10 -12.1 4 -15.7 75 75 NNW 24 39 30.45 1031 7 11.26538 0 0
4:15 pm 16:15 Cloudy with Haze 10 -12 3 -15.9 73 73 NNW 22 35 30.45 1031 5 8.0467 0 0
4:35 pm 16:35 Cloudy 11 -11.7 4 -15.7 72 72 NNW 21 33 30.45 1031 10 16.0934 0 0
4:55 pm 16:55 Cloudy 10 -12.2 2 -16.5 71 71 N 23 37 30.48 1032 7 11.26538 0 0
5:15 pm 17:15 Cloudy with Haze 10 -12.5 2 -16.5 72 72 N 18 30 30.48 1032 4 6.43736 0 0
5:35 pm 17:35 Cloudy with Haze 9 -12.6 2 -16.7 72 72 NNW 24 39 30.53 1034 5 8.0467 0 0
5:55 pm 17:55 Cloudy with Light Snow 32 0.1 32 -0.2 98 98 NE 5 7 29.91 1013 2 3.21868 0.02 0.508
6:15 pm 18:15 Partly Cloudy 8 -13.5 0 -17.7 71 71 NNW 17 28 30.53 1034 10 16.0934 0 0
6:35 pm 18:35 Clear 8 -13.6 0 -17.7 71 71 NNW 23 37 30.53 1034 10 16.0934 0 0
6:55 pm 18:55 Clear 7 -14 -1 -18.1 71 71 N 15 24 30.53 1034 10 16.0934 0 0
7:15 pm 19:15 Clear 7 -14.1 -1 -18.1 72 72 NNW 13 20 30.53 1034 10 16.0934 0 0
7:35 pm 19:35 Clear 6 -14.7 -1 -18.5 73 73 NNW 12 19 30.53 1034 10 16.0934 0 0
7:55 pm 19:55 Partly Cloudy 6 -14.7 -1 -18.6 72 72 NNW 14 22 30.53 1034 10 16.0934 0 0
8:15 pm 20:15 Clear 5 -14.8 -2 -18.8 72 72 NNW 12 19 30.53 1034 10 16.0934 0 0
8:35 pm 20:35 Clear 5 -15 -2 -19 72 72 NNW 14 22 30.56 1035 10 16.0934 0 0
8:55 pm 20:55 Clear 5 -15 -2 -19 72 72 NNW 10 17 30.53 1034 10 16.0934 0 0
9:15 pm 21:15 Clear 4 -15.5 -3 -19.2 74 74 NW 8 13 30.56 1035 10 16.0934 0 0
9:35 pm 21:35 Clear 4 -15.5 -3 -19.3 73 73 NNW 7 11 30.53 1034 10 16.0934 0 0
9:55 pm 21:55 Clear 3 -16 -3 -19.5 75 75 NNW 8 13 30.56 1035 10 16.0934 0 0
10:15 pm 22:15 Clear 3 -16.1 -3 -19.6 75 75 NW 9 15 30.56 1035 10 16.0934 0 0
10:35 pm 22:35 Clear 3 -16.2 -3 -19.6 75 75 NNW 8 13 30.56 1035 10 16.0934 0 0
10:55 pm 22:55 Clear 3 -16.3 -3 -19.7 75 75 NW 8 13 30.56 1035 10 16.0934 0 0
11:15 pm 23:15 Clear 3 -16.3 -3 -19.5 77 77 NNW 8 13 30.56 1035 10 16.0934 0 0
11:35 pm 23:35 Clear 2 -16.4 -3 -19.7 76 76 NNW 3 6 30.56 1035 10 16.0934 0 0
11:55 pm 23:55 Clear 2 -16.8 -4 -19.9 77 77 Calm 30.56 1035 10 16.0934 0 0

Powered by AerisWeather